Time,TemperatureF,DewpointF,PressureIn,WindDirection,WindDirectionDegrees,WindSpeedMPH,WindSpeedGustMPH,Humidity,HourlyPrecipIn,Conditions,Clouds,dailyrainin,SoftwareType,DateUTC
2013-07-20 00:01:00,55.1,51.9,29.87,SW,217,0.0,3.0,89,0.00,,,0.00,LWC V1.00 B64,2013-07-20 07:01:00,
2013-07-20 00:06:00,55.1,52.2,29.87,SW,218,0.0,4.0,90,0.00,,,0.00,LWC V1.00 B64,2013-07-20 07:06:00,
2013-07-20 00:11:00,55.1,52.2,29.87,SW,219,0.0,5.0,90,0.00,,,0.00,LWC V1.00 B64,2013-07-20 07:11:00,
2013-07-20 00:16:00,55.1,51.9,29.86,SW,219,0.0,1.0,89,0.00,,,0.00,LWC V1.00 B64,2013-07-20 07:16:00,
2013-07-20 00:21:00,55.0,52.1,29.87,SW,219,0.0,5.0,90,0.00,,,0.00,LWC V1.00 B64,2013-07-20 07:21:00,
2013-07-20 00:26:00,55.0,52.1,29.87,SW,220,0.0,3.0,90,0.00,,,0.00,LWC V1.00 B64,2013-07-20 07:26:00,
2013-07-20 00:31:00,54.9,52.0,29.87,SW,219,1.0,2.0,90,0.00,,,0.00,LWC V1.00 B64,2013-07-20 07:31:00,
2013-07-20 00:36:00,54.9,52.0,29.87,SW,219,0.0,2.0,90,0.00,,,0.00,LWC V1.00 B64,2013-07-20 07:36:00,
2013-07-20 00:41:00,55.0,52.1,29.87,SW,218,3.0,3.0,90,0.00,,,0.00,LWC V1.00 B64,2013-07-20 07:41:00,
2013-07-20 00:46:00,55.0,52.1,29.87,SW,219,0.0,4.0,90,0.00,,,0.00,LWC V1.00 B64,2013-07-20 07:46:00,
2013-07-20 00:51:00,55.0,52.1,29.87,SW,219,0.0,2.0,90,0.00,,,0.00,LWC V1.00 B64,2013-07-20 07:51:00,
2013-07-20 00:56:00,54.9,52.0,29.87,SW,218,0.0,2.0,90,0.00,,,0.00,LWC V1.00 B64,2013-07-20 07:56:00,
2013-07-20 01:01:00,54.9,52.0,29.87,SW,219,0.0,4.0,90,0.00,,,0.00,LWC V1.00 B64,2013-07-20 08:01:00,
2013-07-20 01:06:00,55.0,52.1,29.87,SW,218,0.0,4.0,90,0.00,,,0.00,LWC V1.00 B64,2013-07-20 08:06:00,
2013-07-20 01:11:00,55.0,52.1,29.87,SW,218,0.0,3.0,90,0.00,,,0.00,LWC V1.00 B64,2013-07-20 08:11:00,
2013-07-20 01:16:00,54.9,52.0,29.87,SW,217,3.0,4.0,90,0.00,,,0.00,LWC V1.00 B64,2013-07-20 08:16:00,
2013-07-20 01:21:00,54.8,51.9,29.87,SW,217,0.0,2.0,90,0.00,,,0.00,LWC V1.00 B64,2013-07-20 08:21:00,
2013-07-20 01:26:00,54.8,51.9,29.87,SW,215,3.0,4.0,90,0.00,,,0.00,LWC V1.00 B64,2013-07-20 08:26:00,
2013-07-20 01:31:00,54.8,51.9,29.87,SW,214,0.0,3.0,90,0.00,,,0.00,LWC V1.00 B64,2013-07-20 08:31:00,
2013-07-20 01:36:00,54.7,51.8,29.87,SW,214,1.0,2.0,90,0.00,,,0.00,LWC V1.00 B64,2013-07-20 08:36:00,
2013-07-20 01:41:00,54.7,51.8,29.86,SW,216,0.0,1.0,90,0.00,,,0.00,LWC V1.00 B64,2013-07-20 08:41:00,
2013-07-20 01:46:00,54.7,51.8,29.86,SW,216,0.0,4.0,90,0.00,,,0.00,LWC V1.00 B64,2013-07-20 08:46:00,
2013-07-20 01:51:00,54.7,51.8,29.86,SW,223,3.0,6.0,90,0.00,,,0.00,LWC V1.00 B64,2013-07-20 08:51:00,
2013-07-20 01:56:00,54.6,51.7,29.86,SW,222,0.0,2.0,90,0.00,,,0.00,LWC V1.00 B64,2013-07-20 08:56:00,
2013-07-20 02:01:00,54.5,51.6,29.86,SW,221,3.0,3.0,90,0.00,,,0.00,LWC V1.00 B64,2013-07-20 09:01:00,
2013-07-20 02:06:00,54.4,51.5,29.86,SW,218,0.0,4.0,90,0.00,,,0.00,LWC V1.00 B64,2013-07-20 09:06:00,
2013-07-20 02:11:00,54.5,51.6,29.85,SW,217,0.0,2.0,90,0.00,,,0.00,LWC V1.00 B64,2013-07-20 09:11:00,
2013-07-20 02:16:00,54.5,51.6,29.85,SW,220,0.0,3.0,90,0.00,,,0.00,LWC V1.00 B64,2013-07-20 09:16:00,
2013-07-20 02:21:00,54.5,51.6,29.85,SW,228,0.0,5.0,90,0.00,,,0.00,LWC V1.00 B64,2013-07-20 09:21:00,
2013-07-20 02:26:00,54.4,51.5,29.85,SW,218,0.0,5.0,90,0.00,,,0.00,LWC V1.00 B64,2013-07-20 09:26:00,
2013-07-20 02:31:00,54.4,51.8,29.85,SSW,211,0.0,3.0,91,0.00,,,0.00,LWC V1.00 B64,2013-07-20 09:31:00,
2013-07-20 02:36:00,54.3,51.4,29.85,SW,215,0.0,6.0,90,0.00,,,0.00,LWC V1.00 B64,2013-07-20 09:36:00,
2013-07-20 02:41:00,54.1,51.2,29.85,SSW,211,0.0,1.0,90,0.00,,,0.00,LWC V1.00 B64,2013-07-20 09:41:00,
2013-07-20 02:46:00,54.0,51.4,29.85,SSW,202,0.0,4.0,91,0.00,,,0.00,LWC V1.00 B64,2013-07-20 09:46:00,
2013-07-20 02:51:00,53.9,51.3,29.84,SSW,202,3.0,3.0,91,0.00,,,0.00,LWC V1.00 B64,2013-07-20 09:51:00,
2013-07-20 02:56:00,53.8,51.2,29.85,SSW,198,0.0,3.0,91,0.00,,,0.00,LWC V1.00 B64,2013-07-20 09:56:00,
2013-07-20 03:01:00,53.8,51.2,29.85,SSW,199,0.0,2.0,91,0.00,,,0.00,LWC V1.00 B64,2013-07-20 10:01:00,
2013-07-20 03:06:00,53.7,51.1,29.85,SSW,200,1.0,5.0,91,0.00,,,0.00,LWC V1.00 B64,2013-07-20 10:06:00,
2013-07-20 03:11:00,53.7,51.1,29.84,SSW,207,0.0,1.0,91,0.00,,,0.00,LWC V1.00 B64,2013-07-20 10:11:00,
2013-07-20 03:16:00,53.7,51.1,29.84,SSW,207,0.0,2.0,91,0.00,,,0.00,LWC V1.00 B64,2013-07-20 10:16:00,
2013-07-20 03:21:00,53.7,51.1,29.84,SSW,206,0.0,1.0,91,0.00,,,0.00,LWC V1.00 B64,2013-07-20 10:21:00,
2013-07-20 03:26:00,53.7,51.1,29.84,SSW,206,0.0,3.0,91,0.00,,,0.00,LWC V1.00 B64,2013-07-20 10:26:00,
2013-07-20 03:31:00,53.5,50.9,29.84,SSW,207,0.0,1.0,91,0.00,,,0.00,LWC V1.00 B64,2013-07-20 10:31:00,
2013-07-20 03:36:00,53.4,50.8,29.84,SSW,207,0.0,2.0,91,0.00,,,0.00,LWC V1.00 B64,2013-07-20 10:36:00,
2013-07-20 03:41:00,53.4,50.8,29.84,SSW,207,0.0,1.0,91,0.00,,,0.00,LWC V1.00 B64,2013-07-20 10:41:00,
2013-07-20 03:46:00,53.4,50.8,29.84,SSW,206,0.0,1.0,91,0.00,,,0.00,LWC V1.00 B64,2013-07-20 10:46:00,
2013-07-20 03:51:00,53.5,50.9,29.84,SSW,207,3.0,3.0,91,0.00,,,0.00,LWC V1.00 B64,2013-07-20 10:51:00,
2013-07-20 03:56:00,53.5,50.9,29.84,SSW,206,0.0,2.0,91,0.00,,,0.00,LWC V1.00 B64,2013-07-20 10:56:00,
2013-07-20 04:01:00,53.5,50.9,29.84,SSW,206,0.0,1.0,91,0.00,,,0.00,LWC V1.00 B64,2013-07-20 11:01:00,
2013-07-20 04:06:00,53.3,50.7,29.84,SSW,200,0.0,3.0,91,0.00,,,0.00,LWC V1.00 B64,2013-07-20 11:06:00,
2013-07-20 04:11:00,53.3,50.7,29.84,SSW,200,0.0,0.0,91,0.00,,,0.00,LWC V1.00 B64,2013-07-20 11:11:00,
2013-07-20 04:16:00,53.3,50.7,29.84,SSW,200,1.0,1.0,91,0.00,,,0.00,LWC V1.00 B64,2013-07-20 11:16:00,
2013-07-20 04:21:00,53.3,50.7,29.84,SSW,200,0.0,0.0,91,0.00,,,0.00,LWC V1.00 B64,2013-07-20 11:21:00,
2013-07-20 04:26:00,53.3,50.7,29.84,SSW,200,0.0,0.0,91,0.00,,,0.00,LWC V1.00 B64,2013-07-20 11:26:00,
2013-07-20 04:31:00,53.1,50.5,29.84,SSW,200,0.0,0.0,91,0.00,,,0.00,LWC V1.00 B64,2013-07-20 11:31:00,
2013-07-20 04:36:00,53.1,50.5,29.84,SSW,200,0.0,0.0,91,0.00,,,0.00,LWC V1.00 B64,2013-07-20 11:36:00,
2013-07-20 04:41:00,53.1,50.5,29.84,SSW,200,0.0,1.0,91,0.00,,,0.00,LWC V1.00 B64,2013-07-20 11:41:00,
2013-07-20 04:46:00,53.0,50.4,29.83,SSW,200,0.0,1.0,91,0.00,,,0.00,LWC V1.00 B64,2013-07-20 11:46:00,
2013-07-20 04:51:00,53.1,50.5,29.84,SSW,200,0.0,0.0,91,0.00,,,0.00,LWC V1.00 B64,2013-07-20 11:51:00,
2013-07-20 04:56:00,53.2,50.6,29.83,SSW,200,0.0,0.0,91,0.00,,,0.00,LWC V1.00 B64,2013-07-20 11:56:00,
2013-07-20 05:01:00,53.2,50.6,29.83,SSW,200,0.0,0.0,91,0.00,,,0.00,LWC V1.00 B64,2013-07-20 12:01:00,
2013-07-20 05:06:00,53.2,50.6,29.83,SSW,200,0.0,0.0,91,0.00,,,0.00,LWC V1.00 B64,2013-07-20 12:06:00,
2013-07-20 05:11:00,53.1,50.5,29.83,SSW,200,0.0,0.0,91,0.00,,,0.00,LWC V1.00 B64,2013-07-20 12:11:00,
2013-07-20 05:16:00,53.1,50.5,29.83,SSW,200,0.0,0.0,91,0.00,,,0.00,LWC V1.00 B64,2013-07-20 12:16:00,
2013-07-20 05:21:00,53.1,50.5,29.83,SSW,200,0.0,1.0,91,0.00,,,0.00,LWC V1.00 B64,2013-07-20 12:21:00,
2013-07-20 05:26:00,53.2,50.6,29.83,SSW,200,0.0,1.0,91,0.00,,,0.00,LWC V1.00 B64,2013-07-20 12:26:00,
2013-07-20 05:31:00,53.2,50.6,29.83,SSW,200,0.0,0.0,91,0.00,,,0.00,LWC V1.00 B64,2013-07-20 12:31:00,
2013-07-20 05:36:00,53.2,50.6,29.83,SSW,200,0.0,1.0,91,0.00,,,0.00,LWC V1.00 B64,2013-07-20 12:36:00,
2013-07-20 05:41:00,53.3,50.7,29.84,SSW,200,0.0,0.0,91,0.00,,,0.00,LWC V1.00 B64,2013-07-20 12:41:00,
2013-07-20 05:46:00,53.3,50.7,29.84,SSW,200,2.0,3.0,91,0.00,,,0.00,LWC V1.00 B64,2013-07-20 12:46:00,
2013-07-20 05:51:00,53.4,50.8,29.84,SSW,200,2.0,2.0,91,0.00,,,0.00,LWC V1.00 B64,2013-07-20 12:51:00,
2013-07-20 05:56:00,53.3,50.7,29.84,SSW,200,0.0,1.0,91,0.00,,,0.00,LWC V1.00 B64,2013-07-20 12:56:00,
2013-07-20 06:01:00,53.2,50.6,29.84,SSW,200,1.0,1.0,91,0.00,,,0.00,LWC V1.00 B64,2013-07-20 13:01:00,
2013-07-20 06:06:00,53.2,50.6,29.84,SSW,200,0.0,1.0,91,0.00,,,0.00,LWC V1.00 B64,2013-07-20 13:06:00,
2013-07-20 06:11:00,53.1,50.5,29.84,SSW,202,0.0,1.0,91,0.00,,,0.00,LWC V1.00 B64,2013-07-20 13:11:00,
2013-07-20 06:16:00,53.2,50.6,29.84,SSW,202,0.0,1.0,91,0.00,,,0.00,LWC V1.00 B64,2013-07-20 13:16:00,
2013-07-20 06:21:00,53.3,50.7,29.84,SSW,202,0.0,0.0,91,0.00,,,0.00,LWC V1.00 B64,2013-07-20 13:21:00,
2013-07-20 06:26:00,53.3,50.7,29.85,SSW,202,0.0,1.0,91,0.00,,,0.00,LWC V1.00 B64,2013-07-20 13:26:00,
2013-07-20 06:31:00,53.2,50.6,29.84,SSW,202,0.0,2.0,91,0.00,,,0.00,LWC V1.00 B64,2013-07-20 13:31:00,
2013-07-20 06:36:00,53.2,50.6,29.84,SSW,202,0.0,0.0,91,0.00,,,0.00,LWC V1.00 B64,2013-07-20 13:36:00,
2013-07-20 06:41:00,53.2,50.6,29.84,SSW,202,0.0,0.0,91,0.00,,,0.00,LWC V1.00 B64,2013-07-20 13:41:00,
2013-07-20 06:46:00,53.1,50.5,29.84,SSW,202,0.0,1.0,91,0.00,,,0.00,LWC V1.00 B64,2013-07-20 13:46:00,
2013-07-20 06:51:00,53.2,50.6,29.84,SSW,202,0.0,0.0,91,0.00,,,0.00,LWC V1.00 B64,2013-07-20 13:51:00,
2013-07-20 06:56:00,53.2,50.6,29.85,SSW,202,0.0,1.0,91,0.00,,,0.00,LWC V1.00 B64,2013-07-20 13:56:00,
2013-07-20 07:01:00,53.1,50.5,29.85,SSW,202,0.0,2.0,91,0.00,,,0.00,LWC V1.00 B64,2013-07-20 14:01:00,
2013-07-20 07:06:00,53.2,50.6,29.85,SSW,202,0.0,0.0,91,0.00,,,0.00,LWC V1.00 B64,2013-07-20 14:06:00,
2013-07-20 07:11:00,53.3,50.7,29.85,SSW,202,0.0,1.0,91,0.00,,,0.00,LWC V1.00 B64,2013-07-20 14:11:00,
2013-07-20 07:16:00,53.4,51.1,29.85,SSW,202,0.0,0.0,92,0.00,,,0.00,LWC V1.00 B64,2013-07-20 14:16:00,
2013-07-20 07:21:00,53.5,50.9,29.85,SSW,202,0.0,0.0,91,0.00,,,0.00,LWC V1.00 B64,2013-07-20 14:21:00,
2013-07-20 07:26:00,53.6,51.0,29.85,SSW,202,0.0,0.0,91,0.00,,,0.00,LWC V1.00 B64,2013-07-20 14:26:00,
2013-07-20 07:31:00,53.6,51.0,29.85,SSW,202,0.0,0.0,91,0.00,,,0.00,LWC V1.00 B64,2013-07-20 14:31:00,
2013-07-20 07:36:00,53.6,51.0,29.85,SSW,202,0.0,1.0,91,0.00,,,0.00,LWC V1.00 B64,2013-07-20 14:36:00,
2013-07-20 07:41:00,53.7,51.1,29.85,SSW,202,1.0,1.0,91,0.00,,,0.00,LWC V1.00 B64,2013-07-20 14:41:00,
2013-07-20 07:46:00,53.8,51.2,29.85,SSW,202,0.0,1.0,91,0.00,,,0.00,LWC V1.00 B64,2013-07-20 14:46:00,
2013-07-20 07:51:00,53.9,51.3,29.85,SSW,202,0.0,0.0,91,0.00,,,0.00,LWC V1.00 B64,2013-07-20 14:51:00,
2013-07-20 07:56:00,54.0,51.4,29.85,SSW,202,0.0,0.0,91,0.00,,,0.00,LWC V1.00 B64,2013-07-20 14:56:00,
2013-07-20 08:01:00,54.2,51.6,29.86,SSW,202,0.0,1.0,91,0.00,,,0.00,LWC V1.00 B64,2013-07-20 15:01:00,
2013-07-20 08:06:00,54.3,51.7,29.86,SSW,202,0.0,0.0,91,0.00,,,0.00,LWC V1.00 B64,2013-07-20 15:06:00,
2013-07-20 08:11:00,54.4,51.8,29.86,SSW,202,0.0,1.0,91,0.00,,,0.00,LWC V1.00 B64,2013-07-20 15:11:00,
2013-07-20 08:16:00,54.6,52.0,29.86,SSW,202,0.0,1.0,91,0.00,,,0.00,LWC V1.00 B64,2013-07-20 15:16:00,
2013-07-20 08:21:00,54.7,52.1,29.86,SSW,202,0.0,1.0,91,0.00,,,0.00,LWC V1.00 B64,2013-07-20 15:21:00,
2013-07-20 08:26:00,54.9,52.3,29.85,SSW,202,0.0,0.0,91,0.00,,,0.00,LWC V1.00 B64,2013-07-20 15:26:00,
2013-07-20 08:31:00,55.2,52.6,29.86,SSW,202,0.0,0.0,91,0.00,,,0.00,LWC V1.00 B64,2013-07-20 15:31:00,
2013-07-20 08:36:00,55.5,52.9,29.86,SSW,202,0.0,2.0,91,0.00,,,0.00,LWC V1.00 B64,2013-07-20 15:36:00,
2013-07-20 08:41:00,55.7,52.8,29.86,SSW,202,0.0,0.0,90,0.00,,,0.00,LWC V1.00 B64,2013-07-20 15:41:00,
2013-07-20 08:46:00,55.9,53.0,29.86,SSW,202,0.0,2.0,90,0.00,,,0.00,LWC V1.00 B64,2013-07-20 15:46:00,
2013-07-20 08:51:00,56.2,53.3,29.86,SSW,202,0.0,2.0,90,0.00,,,0.00,LWC V1.00 B64,2013-07-20 15:51:00,
2013-07-20 08:56:00,56.5,53.6,29.86,SSW,202,0.0,0.0,90,0.00,,,0.00,LWC V1.00 B64,2013-07-20 15:56:00,
2013-07-20 09:01:00,56.6,53.4,29.86,SSW,202,0.0,1.0,89,0.00,,,0.00,LWC V1.00 B64,2013-07-20 16:01:00,
2013-07-20 09:06:00,56.6,53.4,29.86,SSW,202,0.0,1.0,89,0.00,,,0.00,LWC V1.00 B64,2013-07-20 16:06:00,
2013-07-20 09:11:00,57.1,53.9,29.86,SSW,202,0.0,1.0,89,0.00,,,0.00,LWC V1.00 B64,2013-07-20 16:11:00,
2013-07-20 09:16:00,57.6,54.4,29.85,SSW,202,0.0,1.0,89,0.00,,,0.00,LWC V1.00 B64,2013-07-20 16:16:00,
2013-07-20 09:21:00,58.4,55.2,29.85,SSW,202,0.0,2.0,89,0.00,,,0.00,LWC V1.00 B64,2013-07-20 16:21:00,
2013-07-20 09:26:00,58.8,54.9,29.85,SSW,202,1.0,2.0,87,0.00,,,0.00,LWC V1.00 B64,2013-07-20 16:26:00,
2013-07-20 09:31:00,59.1,55.2,29.85,SSW,202,0.0,2.0,87,0.00,,,0.00,LWC V1.00 B64,2013-07-20 16:31:00,
2013-07-20 09:36:00,59.8,55.6,29.85,SSW,202,0.0,2.0,86,0.00,,,0.00,LWC V1.00 B64,2013-07-20 16:36:00,
2013-07-20 09:41:00,60.2,55.7,29.85,SSW,204,0.0,3.0,85,0.00,,,0.00,LWC V1.00 B64,2013-07-20 16:41:00,
2013-07-20 09:46:00,60.2,55.0,29.85,SSW,206,0.0,4.0,83,0.00,,,0.00,LWC V1.00 B64,2013-07-20 16:46:00,
2013-07-20 09:51:00,60.7,55.8,29.85,SSW,206,1.0,2.0,84,0.00,,,0.00,LWC V1.00 B64,2013-07-20 16:51:00,
2013-07-20 09:56:00,61.4,56.5,29.85,SSW,207,0.0,1.0,84,0.00,,,0.00,LWC V1.00 B64,2013-07-20 16:56:00,
2013-07-20 10:01:00,62.1,56.9,29.85,SSW,207,0.0,1.0,83,0.00,,,0.00,LWC V1.00 B64,2013-07-20 17:01:00,
2013-07-20 10:06:00,62.6,57.0,29.85,SSW,207,0.0,1.0,82,0.00,,,0.00,LWC V1.00 B64,2013-07-20 17:06:00,
2013-07-20 10:11:00,63.2,57.3,29.85,SSW,206,0.0,1.0,81,0.00,,,0.00,LWC V1.00 B64,2013-07-20 17:11:00,
2013-07-20 10:16:00,63.6,57.3,29.85,SSW,207,0.0,1.0,80,0.00,,,0.00,LWC V1.00 B64,2013-07-20 17:16:00,
2013-07-20 10:21:00,64.0,57.0,29.84,SSW,207,0.0,1.0,78,0.00,,,0.00,LWC V1.00 B64,2013-07-20 17:21:00,
2013-07-20 10:26:00,64.3,57.3,29.85,SSW,207,0.0,1.0,78,0.00,,,0.00,LWC V1.00 B64,2013-07-20 17:26:00,
2013-07-20 10:31:00,64.9,57.9,29.84,SSW,206,0.0,1.0,78,0.00,,,0.00,LWC V1.00 B64,2013-07-20 17:31:00,
2013-07-20 10:36:00,65.5,58.1,29.84,SSW,207,0.0,1.0,77,0.00,,,0.00,LWC V1.00 B64,2013-07-20 17:36:00,
2013-07-20 10:41:00,66.1,58.3,29.84,SSW,206,0.0,1.0,76,0.00,,,0.00,LWC V1.00 B64,2013-07-20 17:41:00,
2013-07-20 10:46:00,66.5,57.9,29.84,SSW,206,0.0,1.0,74,0.00,,,0.00,LWC V1.00 B64,2013-07-20 17:46:00,
2013-07-20 10:51:00,67.0,58.4,29.84,SSW,206,0.0,1.0,74,0.00,,,0.00,LWC V1.00 B64,2013-07-20 17:51:00,
2013-07-20 10:56:00,67.7,59.1,29.84,SSW,207,0.0,1.0,74,0.00,,,0.00,LWC V1.00 B64,2013-07-20 17:56:00,
2013-07-20 11:01:00,68.5,59.5,29.84,SSW,207,0.0,1.0,73,0.00,,,0.00,LWC V1.00 B64,2013-07-20 18:01:00,
2013-07-20 11:06:00,69.2,59.8,29.84,SSW,206,0.0,1.0,72,0.00,,,0.00,LWC V1.00 B64,2013-07-20 18:06:00,
2013-07-20 11:11:00,69.3,59.1,29.83,North,0,4.0,7.0,70,0.00,,,0.00,LWC V1.00 B64,2013-07-20 18:11:00,
2013-07-20 11:16:00,68.0,58.6,29.83,North,355,7.0,7.0,72,0.00,,,0.00,LWC V1.00 B64,2013-07-20 18:16:00,
2013-07-20 11:21:00,67.4,58.4,29.83,NNW,345,2.0,5.0,73,0.00,,,0.00,LWC V1.00 B64,2013-07-20 18:21:00,
2013-07-20 11:26:00,67.4,59.2,29.83,North,355,2.0,5.0,75,0.00,,,0.00,LWC V1.00 B64,2013-07-20 18:26:00,
2013-07-20 11:31:00,67.6,59.4,29.83,NNW,348,3.0,5.0,75,0.00,,,0.00,LWC V1.00 B64,2013-07-20 18:31:00,
2013-07-20 11:36:00,68.2,60.0,29.83,NNW,346,0.0,4.0,75,0.00,,,0.00,LWC V1.00 B64,2013-07-20 18:36:00,
2013-07-20 11:41:00,69.3,61.0,29.83,SW,231,0.0,3.0,75,0.00,,,0.00,LWC V1.00 B64,2013-07-20 18:41:00,
2013-07-20 11:46:00,70.9,61.4,29.83,WSW,238,2.0,3.0,72,0.00,,,0.00,LWC V1.00 B64,2013-07-20 18:46:00,
2013-07-20 11:51:00,70.5,59.4,29.83,NNW,328,3.0,5.0,68,0.00,,,0.00,LWC V1.00 B64,2013-07-20 18:51:00,
2013-07-20 11:56:00,70.4,60.1,29.83,NNW,347,0.0,6.0,70,0.00,,,0.00,LWC V1.00 B64,2013-07-20 18:56:00,
2013-07-20 12:01:00,70.2,59.9,29.83,North,5,3.0,6.0,70,0.00,,,0.00,LWC V1.00 B64,2013-07-20 19:01:00,
2013-07-20 12:06:00,69.8,59.6,29.83,North,350,6.0,10.0,70,0.00,,,0.00,LWC V1.00 B64,2013-07-20 19:06:00,
2013-07-20 12:11:00,69.8,60.0,29.83,NNW,334,6.0,12.0,71,0.00,,,0.00,LWC V1.00 B64,2013-07-20 19:11:00,
2013-07-20 12:16:00,69.1,59.3,29.83,North,11,9.0,13.0,71,0.00,,,0.00,LWC V1.00 B64,2013-07-20 19:16:00,
2013-07-20 12:21:00,68.4,59.0,29.83,North,5,3.0,11.0,72,0.00,,,0.00,LWC V1.00 B64,2013-07-20 19:21:00,
2013-07-20 12:26:00,68.4,59.0,29.83,NNW,338,3.0,13.0,72,0.00,,,0.00,LWC V1.00 B64,2013-07-20 19:26:00,
2013-07-20 12:31:00,68.7,59.3,29.83,North,0,5.0,11.0,72,0.00,,,0.00,LWC V1.00 B64,2013-07-20 19:31:00,
2013-07-20 12:36:00,68.3,59.3,29.83,NNW,337,9.0,10.0,73,0.00,,,0.00,LWC V1.00 B64,2013-07-20 19:36:00,
2013-07-20 12:41:00,68.0,59.0,29.83,NNW,348,4.0,12.0,73,0.00,,,0.00,LWC V1.00 B64,2013-07-20 19:41:00,
2013-07-20 12:46:00,67.6,58.6,29.83,North,350,4.0,11.0,73,0.00,,,0.00,LWC V1.00 B64,2013-07-20 19:46:00,
2013-07-20 12:51:00,67.3,58.3,29.83,NNW,340,8.0,11.0,73,0.00,,,0.00,LWC V1.00 B64,2013-07-20 19:51:00,
2013-07-20 12:56:00,67.1,58.1,29.83,North,355,4.0,12.0,73,0.00,,,0.00,LWC V1.00 B64,2013-07-20 19:56:00,
2013-07-20 13:01:00,67.2,58.6,29.83,North,9,7.0,10.0,74,0.00,,,0.00,LWC V1.00 B64,2013-07-20 20:01:00,
2013-07-20 13:06:00,67.3,58.7,29.83,NNW,341,8.0,11.0,74,0.00,,,0.00,LWC V1.00 B64,2013-07-20 20:06:00,
2013-07-20 13:12:00,67.2,58.6,29.83,North,355,4.0,9.0,74,0.00,,,0.00,LWC V1.00 B64,2013-07-20 20:12:00,
2013-07-20 13:17:00,67.6,58.6,29.83,North,349,5.0,7.0,73,0.00,,,0.00,LWC V1.00 B64,2013-07-20 20:17:00,
2013-07-20 13:22:00,67.3,58.3,29.83,North,10,5.0,7.0,73,0.00,,,0.00,LWC V1.00 B64,2013-07-20 20:22:00,
2013-07-20 13:27:00,67.1,58.5,29.83,North,0,7.0,9.0,74,0.00,,,0.00,LWC V1.00 B64,2013-07-20 20:27:00,
2013-07-20 13:32:00,67.2,59.0,29.83,North,355,4.0,8.0,75,0.00,,,0.00,LWC V1.00 B64,2013-07-20 20:32:00,
2013-07-20 13:37:00,67.8,59.2,29.82,NW,326,7.0,9.0,74,0.00,,,0.00,LWC V1.00 B64,2013-07-20 20:37:00,
2013-07-20 13:42:00,67.3,58.3,29.82,North,5,7.0,9.0,73,0.00,,,0.00,LWC V1.00 B64,2013-07-20 20:42:00,
2013-07-20 13:47:00,66.9,58.3,29.81,North,5,7.0,7.0,74,0.00,,,0.00,LWC V1.00 B64,2013-07-20 20:47:00,
2013-07-20 13:52:00,67.6,58.6,29.82,North,350,4.0,10.0,73,0.00,,,0.00,LWC V1.00 B64,2013-07-20 20:52:00,
2013-07-20 13:57:00,67.7,58.7,29.82,NNW,343,3.0,10.0,73,0.00,,,0.00,LWC V1.00 B64,2013-07-20 20:57:00,
2013-07-20 14:02:00,67.8,58.8,29.82,NNW,344,3.0,7.0,73,0.00,,,0.00,LWC V1.00 B64,2013-07-20 21:02:00,
2013-07-20 14:07:00,67.6,58.6,29.82,NNW,344,3.0,7.0,73,0.00,,,0.00,LWC V1.00 B64,2013-07-20 21:07:00,
2013-07-20 14:13:00,67.6,58.6,29.82,North,351,6.0,10.0,73,0.00,,,0.00,LWC V1.00 B64,2013-07-20 21:13:00,
2013-07-20 14:18:00,68.0,59.0,29.81,NNW,344,2.0,5.0,73,0.00,,,0.00,LWC V1.00 B64,2013-07-20 21:18:00,
2013-07-20 14:24:00,68.3,58.9,29.81,NW,320,4.0,5.0,72,0.00,,,0.00,LWC V1.00 B64,2013-07-20 21:24:00,
2013-07-20 14:30:00,68.0,58.2,29.82,NNW,333,5.0,8.0,71,0.00,,,0.00,LWC V1.00 B64,2013-07-20 21:30:00,
2013-07-20 14:37:00,68.2,58.8,29.82,NNW,345,3.0,5.0,72,0.00,,,0.00,LWC V1.00 B64,2013-07-20 21:37:00,
2013-07-20 14:42:00,68.5,58.7,29.82,NNW,336,2.0,7.0,71,0.00,,,0.00,LWC V1.00 B64,2013-07-20 21:42:00,
2013-07-20 14:48:00,68.8,59.4,29.82,NW,315,0.0,1.0,72,0.00,,,0.00,LWC V1.00 B64,2013-07-20 21:48:00,
2013-07-20 14:53:00,70.2,60.3,29.82,SW,232,2.0,5.0,71,0.00,,,0.00,LWC V1.00 B64,2013-07-20 21:53:00,
2013-07-20 14:58:00,71.9,61.2,29.82,West,276,3.0,6.0,69,0.00,,,0.00,LWC V1.00 B64,2013-07-20 21:58:00,
2013-07-20 15:03:00,72.8,60.8,29.82,WSW,250,1.0,4.0,66,0.00,,,0.00,LWC V1.00 B64,2013-07-20 22:03:00,
2013-07-20 15:08:00,73.6,61.1,29.81,SW,219,5.0,6.0,65,0.00,,,0.00,LWC V1.00 B64,2013-07-20 22:08:00,
2013-07-20 15:13:00,73.3,61.2,29.81,SSW,210,1.0,5.0,66,0.00,,,0.00,LWC V1.00 B64,2013-07-20 22:13:00,
2013-07-20 15:18:00,73.6,61.5,29.81,SSW,213,2.0,4.0,66,0.00,,,0.00,LWC V1.00 B64,2013-07-20 22:18:00,
2013-07-20 15:23:00,74.0,60.6,29.81,SW,215,2.0,4.0,63,0.00,,,0.00,LWC V1.00 B64,2013-07-20 22:23:00,
2013-07-20 15:28:00,74.2,61.2,29.81,SW,218,3.0,4.0,64,0.00,,,0.00,LWC V1.00 B64,2013-07-20 22:28:00,
2013-07-20 15:33:00,73.5,60.1,29.81,South,182,2.0,7.0,63,0.00,,,0.00,LWC V1.00 B64,2013-07-20 22:33:00,
2013-07-20 15:38:00,72.6,60.1,29.81,SSW,201,1.0,4.0,65,0.00,,,0.00,LWC V1.00 B64,2013-07-20 22:38:00,
2013-07-20 15:43:00,72.4,60.8,29.81,SSW,197,2.0,3.0,67,0.00,,,0.00,LWC V1.00 B64,2013-07-20 22:43:00,
2013-07-20 15:48:00,72.6,60.6,29.81,SSW,210,1.0,7.0,66,0.00,,,0.00,LWC V1.00 B64,2013-07-20 22:48:00,
2013-07-20 15:54:00,72.8,61.2,29.81,SSW,198,2.0,4.0,67,0.00,,,0.00,LWC V1.00 B64,2013-07-20 22:54:00,
2013-07-20 15:59:00,72.4,60.4,29.80,SSW,202,1.0,5.0,66,0.00,,,0.00,LWC V1.00 B64,2013-07-20 22:59:00,
2013-07-20 16:04:00,71.8,60.2,29.80,SSW,197,2.0,5.0,67,0.00,,,0.00,LWC V1.00 B64,2013-07-20 23:04:00,
2013-07-20 16:10:00,71.5,60.0,29.80,SW,230,0.0,6.0,67,0.00,,,0.00,LWC V1.00 B64,2013-07-20 23:10:00,
2013-07-20 16:15:00,71.6,60.0,29.80,SSW,210,4.0,7.0,67,0.00,,,0.00,LWC V1.00 B64,2013-07-20 23:15:00,
2013-07-20 16:20:00,71.9,60.3,29.80,SW,221,2.0,4.0,67,0.00,,,0.00,LWC V1.00 B64,2013-07-20 23:20:00,
2013-07-20 16:25:00,72.0,60.4,29.80,SSW,213,3.0,4.0,67,0.00,,,0.00,LWC V1.00 B64,2013-07-20 23:25:00,
2013-07-20 16:31:00,71.7,59.7,29.80,SSW,210,0.0,4.0,66,0.00,,,0.00,LWC V1.00 B64,2013-07-20 23:31:00,
2013-07-20 16:36:00,71.3,58.5,29.79,West,263,2.0,6.0,64,0.00,,,0.00,LWC V1.00 B64,2013-07-20 23:36:00,
2013-07-20 16:41:00,69.1,56.8,29.79,North,9,1.0,7.0,65,0.00,,,0.00,LWC V1.00 B64,2013-07-20 23:41:00,
2013-07-20 16:46:00,67.5,57.0,29.79,North,355,5.0,6.0,69,0.00,,,0.00,LWC V1.00 B64,2013-07-20 23:46:00,
2013-07-20 16:51:00,66.8,56.7,29.79,North,355,1.0,7.0,70,0.00,,,0.00,LWC V1.00 B64,2013-07-20 23:51:00,
2013-07-20 16:56:00,65.9,56.2,29.79,NNW,336,5.0,9.0,71,0.00,,,0.00,LWC V1.00 B64,2013-07-20 23:56:00,
2013-07-20 17:01:00,64.5,55.6,29.79,NW,307,4.0,7.0,73,0.00,,,0.00,LWC V1.00 B64,2013-07-21 00:01:00,
2013-07-20 17:06:00,64.1,55.6,29.79,North,355,1.0,5.0,74,0.00,,,0.00,LWC V1.00 B64,2013-07-21 00:06:00,
2013-07-20 17:11:00,63.5,56.2,29.79,NNW,345,3.0,7.0,77,0.00,,,0.00,LWC V1.00 B64,2013-07-21 00:11:00,
2013-07-20 17:16:00,63.1,55.0,29.79,North,0,3.0,7.0,75,0.00,,,0.00,LWC V1.00 B64,2013-07-21 00:16:00,
2013-07-20 17:21:00,63.2,55.5,29.79,NNW,338,3.0,10.0,76,0.00,,,0.00,LWC V1.00 B64,2013-07-21 00:21:00,
2013-07-20 17:26:00,62.6,54.9,29.79,North,0,3.0,7.0,76,0.00,,,0.00,LWC V1.00 B64,2013-07-21 00:26:00,
2013-07-20 17:31:00,62.3,55.0,29.78,NNW,337,3.0,6.0,77,0.00,,,0.00,LWC V1.00 B64,2013-07-21 00:31:00,
2013-07-20 17:37:00,62.4,55.4,29.79,North,0,0.0,5.0,78,0.00,,,0.00,LWC V1.00 B64,2013-07-21 00:37:00,
2013-07-20 17:42:00,63.1,55.8,29.78,NW,315,3.0,4.0,77,0.00,,,0.00,LWC V1.00 B64,2013-07-21 00:42:00,
2013-07-20 17:47:00,63.1,55.8,29.78,WNW,282,0.0,5.0,77,0.00,,,0.00,LWC V1.00 B64,2013-07-21 00:47:00,
2013-07-20 17:54:00,63.6,55.5,29.78,NW,321,0.0,5.0,75,0.00,,,0.00,LWC V1.00 B64,2013-07-21 00:54:00,
2013-07-20 17:59:00,63.4,55.7,29.79,NW,307,0.0,1.0,76,0.00,,,0.00,LWC V1.00 B64,2013-07-21 00:59:00,
2013-07-20 18:04:00,63.5,55.4,29.78,West,259,2.0,6.0,75,0.00,,,0.00,LWC V1.00 B64,2013-07-21 01:04:00,
2013-07-20 18:09:00,63.4,55.3,29.79,WSW,258,1.0,2.0,75,0.00,,,0.00,LWC V1.00 B64,2013-07-21 01:09:00,
2013-07-20 18:14:00,63.4,55.3,29.78,West,266,1.0,5.0,75,0.00,,,0.00,LWC V1.00 B64,2013-07-21 01:14:00,
2013-07-20 18:19:00,63.3,55.2,29.78,West,265,2.0,4.0,75,0.00,,,0.00,LWC V1.00 B64,2013-07-21 01:19:00,
2013-07-20 18:24:00,62.8,54.4,29.78,West,263,0.0,1.0,74,0.00,,,0.00,LWC V1.00 B64,2013-07-21 01:24:00,
2013-07-20 18:30:00,62.4,54.4,29.78,SW,226,0.0,5.0,75,0.00,,,0.00,LWC V1.00 B64,2013-07-21 01:30:00,
2013-07-20 18:35:00,62.1,54.1,29.78,West,280,0.0,6.0,75,0.00,,,0.00,LWC V1.00 B64,2013-07-21 01:35:00,
2013-07-20 18:41:00,61.6,54.0,29.78,WSW,245,1.0,3.0,76,0.00,,,0.00,LWC V1.00 B64,2013-07-21 01:41:00,
2013-07-20 18:46:00,61.0,53.7,29.78,SSW,206,1.0,3.0,77,0.00,,,0.00,LWC V1.00 B64,2013-07-21 01:46:00,
2013-07-20 18:51:00,61.0,54.1,29.78,SW,234,0.0,2.0,78,0.00,,,0.00,LWC V1.00 B64,2013-07-21 01:51:00,
2013-07-20 18:56:00,61.0,54.4,29.78,South,189,0.0,2.0,79,0.00,,,0.00,LWC V1.00 B64,2013-07-21 01:56:00,
2013-07-20 19:01:00,60.7,53.8,29.78,SSW,213,1.0,3.0,78,0.00,,,0.00,LWC V1.00 B64,2013-07-21 02:01:00,
2013-07-20 19:06:00,60.2,53.7,29.78,South,190,1.0,4.0,79,0.00,,,0.00,LWC V1.00 B64,2013-07-21 02:06:00,
2013-07-20 19:11:00,59.7,53.5,29.78,South,169,0.0,4.0,80,0.00,,,0.00,LWC V1.00 B64,2013-07-21 02:11:00,
2013-07-20 19:16:00,59.3,53.5,29.78,SSW,200,0.0,3.0,81,0.00,,,0.00,LWC V1.00 B64,2013-07-21 02:16:00,
2013-07-20 19:21:00,59.1,53.3,29.78,SSW,207,0.0,3.0,81,0.00,,,0.00,LWC V1.00 B64,2013-07-21 02:21:00,
2013-07-20 19:26:00,58.7,53.2,29.78,SSW,204,0.0,2.0,82,0.00,,,0.00,LWC V1.00 B64,2013-07-21 02:26:00,
2013-07-20 19:31:00,58.4,52.9,29.78,SSW,211,0.0,4.0,82,0.00,,,0.00,LWC V1.00 B64,2013-07-21 02:31:00,
2013-07-20 19:36:00,58.0,52.9,29.78,SSW,211,0.0,6.0,83,0.00,,,0.00,LWC V1.00 B64,2013-07-21 02:36:00,
2013-07-20 19:41:00,57.7,52.6,29.78,SSW,213,2.0,3.0,83,0.00,,,0.00,LWC V1.00 B64,2013-07-21 02:41:00,
2013-07-20 19:47:00,57.2,52.4,29.79,SSW,206,1.0,3.0,84,0.00,,,0.00,LWC V1.00 B64,2013-07-21 02:47:00,
2013-07-20 19:52:00,56.8,52.0,29.79,SSW,207,2.0,3.0,84,0.00,,,0.00,LWC V1.00 B64,2013-07-21 02:52:00,
2013-07-20 19:58:00,56.4,51.9,29.79,SSW,194,0.0,4.0,85,0.00,,,0.00,LWC V1.00 B64,2013-07-21 02:58:00,
2013-07-20 20:03:00,56.1,52.0,29.79,SSW,211,1.0,7.0,86,0.00,,,0.00,LWC V1.00 B64,2013-07-21 03:03:00,
2013-07-20 20:08:00,55.9,51.8,29.79,SW,214,4.0,7.0,86,0.00,,,0.00,LWC V1.00 B64,2013-07-21 03:08:00,
2013-07-20 20:13:00,55.7,51.9,29.79,SW,219,0.0,7.0,87,0.00,,,0.00,LWC V1.00 B64,2013-07-21 03:13:00,
2013-07-20 20:18:00,55.4,51.6,29.79,SSW,207,3.0,4.0,87,0.00,,,0.00,LWC V1.00 B64,2013-07-21 03:18:00,
2013-07-20 20:23:00,55.1,51.6,29.79,SSW,209,5.0,6.0,88,0.00,,,0.00,LWC V1.00 B64,2013-07-21 03:23:00,
2013-07-20 20:28:00,54.9,51.4,29.80,South,190,2.0,4.0,88,0.00,,,0.00,LWC V1.00 B64,2013-07-21 03:28:00,
2013-07-20 20:33:00,54.8,51.3,29.79,SSW,202,1.0,5.0,88,0.00,,,0.00,LWC V1.00 B64,2013-07-21 03:33:00,
2013-07-20 20:38:00,54.7,51.5,29.79,SW,217,1.0,7.0,89,0.00,,,0.00,LWC V1.00 B64,2013-07-21 03:38:00,
2013-07-20 20:44:00,54.7,51.5,29.80,SSW,200,3.0,9.0,89,0.00,,,0.00,LWC V1.00 B64,2013-07-21 03:44:00,
2013-07-20 20:49:00,54.6,51.4,29.80,SSW,205,4.0,7.0,89,0.00,,,0.00,LWC V1.00 B64,2013-07-21 03:49:00,
2013-07-20 20:54:00,54.5,51.3,29.80,SW,215,5.0,10.0,89,0.00,,,0.00,LWC V1.00 B64,2013-07-21 03:54:00,
2013-07-20 20:59:00,54.4,51.2,29.80,SW,227,7.0,11.0,89,0.00,,,0.00,LWC V1.00 B64,2013-07-21 03:59:00,
2013-07-20 21:01:00,54.4,51.2,29.80,SSW,211,2.0,10.0,89,0.00,,,0.00,LWC V1.00 B64,2013-07-21 04:01:00,
2013-07-20 21:02:00,54.3,51.4,29.80,SSW,199,6.0,11.0,90,0.00,,,0.00,LWC V1.00 B64,2013-07-21 04:02:00,
2013-07-20 21:05:00,54.3,51.4,29.80,SSW,198,1.0,3.0,90,0.00,,,0.00,LWC V1.00 B64,2013-07-21 04:05:00,
2013-07-20 21:06:00,54.4,51.5,29.80,SSW,200,1.0,4.0,90,0.00,,,0.00,LWC V1.00 B64,2013-07-21 04:06:00,
2013-07-20 21:08:00,54.4,51.5,29.80,SW,214,5.0,12.0,90,0.00,,,0.00,LWC V1.00 B64,2013-07-21 04:08:00,
2013-07-20 21:13:00,54.4,51.5,29.80,SSW,203,1.0,7.0,90,0.00,,,0.00,LWC V1.00 B64,2013-07-21 04:13:00,
2013-07-20 21:18:00,54.4,51.5,29.80,SW,215,1.0,9.0,90,0.00,,,0.00,LWC V1.00 B64,2013-07-21 04:18:00,
2013-07-20 21:23:00,54.5,51.6,29.80,South,191,1.0,6.0,90,0.00,,,0.00,LWC V1.00 B64,2013-07-21 04:23:00,
2013-07-20 21:28:00,54.6,51.7,29.81,SSW,205,6.0,6.0,90,0.00,,,0.00,LWC V1.00 B64,2013-07-21 04:28:00,
2013-07-20 21:33:00,54.5,51.6,29.81,SSW,207,2.0,9.0,90,0.00,,,0.00,LWC V1.00 B64,2013-07-21 04:33:00,
2013-07-20 21:38:00,54.5,51.6,29.81,SW,224,3.0,10.0,90,0.00,,,0.00,LWC V1.00 B64,2013-07-21 04:38:00,
2013-07-20 21:43:00,54.5,51.6,29.81,SSW,199,0.0,2.0,90,0.00,,,0.00,LWC V1.00 B64,2013-07-21 04:43:00,
2013-07-20 21:48:00,54.5,51.9,29.81,SSW,200,0.0,0.0,91,0.00,,,0.00,LWC V1.00 B64,2013-07-21 04:48:00,
2013-07-20 21:53:00,54.5,51.9,29.81,SW,214,2.0,3.0,91,0.00,,,0.00,LWC V1.00 B64,2013-07-21 04:53:00,
2013-07-20 21:58:00,54.5,51.6,29.82,SW,215,0.0,1.0,90,0.00,,,0.00,LWC V1.00 B64,2013-07-21 04:58:00,
2013-07-20 22:03:00,54.5,51.9,29.82,SW,215,1.0,3.0,91,0.00,,,0.00,LWC V1.00 B64,2013-07-21 05:03:00,
2013-07-20 22:08:00,54.5,51.9,29.82,SW,215,1.0,3.0,91,0.00,,,0.00,LWC V1.00 B64,2013-07-21 05:08:00,
2013-07-20 22:13:00,54.5,51.9,29.82,SW,216,0.0,3.0,91,0.00,,,0.00,LWC V1.00 B64,2013-07-21 05:13:00,
2013-07-20 22:18:00,54.5,51.6,29.82,SW,215,0.0,1.0,90,0.00,,,0.00,LWC V1.00 B64,2013-07-21 05:18:00,
2013-07-20 22:23:00,54.5,51.6,29.82,SW,215,0.0,4.0,90,0.00,,,0.00,LWC V1.00 B64,2013-07-21 05:23:00,
2013-07-20 22:28:00,54.6,52.0,29.82,SW,216,0.0,4.0,91,0.00,,,0.00,LWC V1.00 B64,2013-07-21 05:28:00,
2013-07-20 22:33:00,54.6,51.7,29.82,South,178,0.0,2.0,90,0.00,,,0.00,LWC V1.00 B64,2013-07-21 05:33:00,
2013-07-20 22:38:00,54.5,51.6,29.82,South,188,0.0,4.0,90,0.00,,,0.00,LWC V1.00 B64,2013-07-21 05:38:00,
2013-07-20 22:43:00,54.6,51.7,29.82,South,190,0.0,0.0,90,0.00,,,0.00,LWC V1.00 B64,2013-07-21 05:43:00,
2013-07-20 22:48:00,54.5,51.6,29.82,SSW,192,0.0,2.0,90,0.00,,,0.00,LWC V1.00 B64,2013-07-21 05:48:00,
2013-07-20 22:53:00,54.6,51.7,29.82,SSW,194,3.0,3.0,90,0.00,,,0.00,LWC V1.00 B64,2013-07-21 05:53:00,
2013-07-20 22:58:00,54.7,51.8,29.81,SSW,194,0.0,3.0,90,0.00,,,0.00,LWC V1.00 B64,2013-07-21 05:58:00,
2013-07-20 23:03:00,54.8,51.9,29.81,SSW,194,0.0,1.0,90,0.00,,,0.00,LWC V1.00 B64,2013-07-21 06:03:00,
2013-07-20 23:08:00,54.8,51.9,29.81,SSW,194,0.0,2.0,90,0.00,,,0.00,LWC V1.00 B64,2013-07-21 06:08:00,
2013-07-20 23:13:00,54.6,51.7,29.81,SSW,194,0.0,0.0,90,0.00,,,0.00,LWC V1.00 B64,2013-07-21 06:13:00,
2013-07-20 23:18:00,54.4,51.5,29.81,SSW,194,0.0,0.0,90,0.00,,,0.00,LWC V1.00 B64,2013-07-21 06:18:00,
2013-07-20 23:23:00,54.4,51.5,29.81,SSW,211,0.0,6.0,90,0.00,,,0.00,LWC V1.00 B64,2013-07-21 06:23:00,
2013-07-20 23:28:00,54.6,51.7,29.81,SSW,213,1.0,3.0,90,0.00,,,0.00,LWC V1.00 B64,2013-07-21 06:28:00,
2013-07-20 23:33:00,54.7,51.8,29.82,SSW,209,0.0,2.0,90,0.00,,,0.00,LWC V1.00 B64,2013-07-21 06:33:00,
2013-07-20 23:38:00,54.6,51.7,29.82,SSW,209,0.0,3.0,90,0.00,,,0.00,LWC V1.00 B64,2013-07-21 06:38:00,
2013-07-20 23:43:00,54.5,51.6,29.82,SSW,209,1.0,1.0,90,0.00,,,0.00,LWC V1.00 B64,2013-07-21 06:43:00,
2013-07-20 23:48:00,54.4,51.5,29.82,SSW,209,0.0,0.0,90,0.00,,,0.00,LWC V1.00 B64,2013-07-21 06:48:00,
2013-07-20 23:53:00,54.5,51.6,29.82,SSW,209,2.0,3.0,90,0.00,,,0.00,LWC V1.00 B64,2013-07-21 06:53:00,
2013-07-20 23:58:00,54.7,51.8,29.81,SSW,210,0.0,0.0,90,0.00,,,0.00,LWC V1.00 B64,2013-07-21 06:58:00,